Location: Dal�� Lhota
(48.7500°N, 14.0167°E)
Time: 07:08:29
(UTC+00:00)

Courier 1B Rocket - Pass Details

Date: 04 August 2021
Orbit: 920 x 1202 km, 28.3° (Epoch: 27 September)

Event Time Altitude Azimuth Distance (km) Brightness Sun altitude
Rises 02:00:02 0° 235° (SW) 3,758 - -14.0°
Reaches altitude 10° 02:05:17 10° 201° (SSW) 2,729 - -13.4°
Exits shadow 02:06:48 11° 188° (S) 2,640 6.8 -13.3°
Maximum altitude 02:06:54 11° 187° (S) 2,639 6.8 -13.2°
Drops below altitude 10° 02:08:30 10° 172° (S) 2,688 6.9 -13.1°
Sets 02:13:30 0° 138° (SE) 3,581 7.9 -12.5°
